Regional Weather Roundup
Issued by NWS

Home | Current Version | Previous Version | Text Only | Print | Product List | Glossary On
Versions: 1 2 3 4 5 6 7 8 9 10 11 12 13 14 15 16 17 18 19 20 21 22 23 24 25 26 27 28 29 30 31 32 33 34 35 36 37 38 39 40 41 42 43 44 45 46 47 48 49 50
000
ASUS43 KDMX 130406
RWRIA

WEATHER ROUNDUP FOR IOWA
NATIONAL WEATHER SERVICE DES MOINES IA
1100 PM CDT WED AUG 12 2020

NOTE: "FAIR" INDICATES FEW OR NO CLOUDS BELOW 12,000 FEET WITH NO
SIGNIFICANT WEATHER AND/OR OBSTRUCTIONS TO VISIBILITY.

* - THESE STATIONS ARE NOT NWS STATIONS...THUS NOT UNDER NWS
QUALITY CONTROL.  THEY ALSO DO NOT REPORT WEATHER SUCH
AS PRECIPITATION OR FOG.

IAZ001>003-012>014-020>022-031>034-043>046-130500-
   NORTHWEST IOWA

CITY           SKY/WX    TMP DP  RH WIND       PRES   REMARKS
CARROLL *      PTCLDY    73  73 100 CALM      29.99S
CHEROKEE *     CLEAR     71  71 100 CALM      29.98R
DENISON *      PTCLDY    73  73 100 CALM      30.00R
LE MARS *        N/A    N/A N/A N/A MISG        N/A
SHELDON *      CLEAR     72  72 100 S8        29.95S
SIOUX CITY     CLEAR     74  70  87 SE8       29.95R
SPENCER        CLEAR     73  70  90 SE6       29.99R
STORM LAKE *   CLEAR     70  70 100 S8        29.97S
$$

IAZ055>058-069>071-079>083-090>094-130500-
   SOUTHWEST IOWA

CITY           SKY/WX    TMP DP  RH WIND       PRES   REMARKS
ATLANTIC *     CLOUDY    77  77 100 S3        29.98R
AUDUBON *      MOCLDY    75  70  83 CALM      30.01S
CLARINDA *     CLOUDY    79  77  94 S7G14     30.00R HX  83
COUNCIL BLFS * PTCLDY    73  73 100 SE5       29.98S
CRESTON *      CLOUDY    75  75 100 S8        30.01S
HARLAN  *      PTCLDY    72  72 100 CALM      29.99R
LAMONI         MOCLDY    76  72  87 CALM      30.03S
RED OAK *      CLOUDY    77  75  94 SE5       29.99R
SHENANDOAH *   MOCLDY    77  75  94 SE5       29.97S
$$

IAZ047>049-059>061-072>074-084-130500-
   CENTRAL IOWA

CITY           SKY/WX    TMP DP  RH WIND       PRES   REMARKS
AMES           MOCLDY    75  73  93 SE5       30.01R
ANKENY *       MOCLDY    77  73  88 SE3       30.02R
BOONE *        MOCLDY    75  75 100 SE6       30.01S
CHARITON *     CLOUDY    75  75 100 S6        30.03R
DES MOINES     CLOUDY    78  73  84 SE7       30.00R HX  81
GRINNELL*      MOCLDY    79  71  75 SE8       30.05R HX  82
KNOXVILLE *    MOCLDY    77  73  88 SE7       30.02R
NEWTON *       PTCLDY    75  73  94 SE8       30.02R
PELLA *          N/A     76  72  87 SE7       30.03R
PERRY *        FAIR      75  73  91 SE5       30.00S
$$

IAZ004>006-015-016-023>025-035-036-130500-
   NORTH CENTRAL IOWA

CITY           SKY/WX    TMP DP  RH WIND       PRES   REMARKS
ALGONA *       CLEAR     75  73  94 SE10G16   29.98S
CLARION *      CLEAR     75  75 100 SE12      30.01S
ESTHERVILLE    CLEAR     72  71  97 S7        29.98S
FORT DODGE *   MOCLDY    78  74  87 SE8       30.01R HX  81
MASON CITY     PTCLDY    71  68  90 SE10      30.03R
FOREST CITY *  FAIR      72  72 100 S9        30.01R
IOWA FALLS *   FAIR      75  68  78 SE8       30.04S
$$

IAZ007>011-017>019-026>030-037>042-050>054-066-130500-
   NORTHEAST IOWA

CITY           SKY/WX    TMP DP  RH WIND       PRES   REMARKS
CHARLES CITY * PTCLDY    70  66  88 SE8       30.04R
CLINTON *      PTCLDY    67  60  78 SE6       30.08S
DECORAH *      PTCLDY    70  66  88 SE6       30.05R
DUBUQUE        PTCLDY    67  64  90 S8        30.08R
MONTICELLO *   PTCLDY    70  66  88 SE6       30.06S
OELWEIN *      MOCLDY    72  64  78 SE9       30.05R
WATERLOO       MOCLDY    76  65  68 SE12      30.02R
$$

IAZ064-065-067-068-078-130500-
   EAST CENTRAL IOWA

CITY           SKY/WX    TMP DP  RH WIND       PRES   REMARKS
DAVENPORT      MOCLDY    70  61  73 SE7       30.09R
IOWA CITY      MOCLDY    73  65  75 SE7       30.07R
MT. PLEASANT * MOCLDY    73  66  78 SE7       30.06R
MUSCATINE *    MOCLDY    73  64  73 SE3       30.06S
QUAD CITIES    MOCLDY    70  62  76 E3        30.07R
$$

IAZ062-063-075>077-085>089-095>099-130500-
   SOUTHEAST IOWA

CITY           SKY/WX    TMP DP  RH WIND       PRES   REMARKS
BURLINGTON     MOCLDY    75  64  68 E7        30.06S
FAIRFIELD *    PTCLDY    73  73 100 SE9       30.05R
FORT MADISON * MOCLDY    73  66  78 SE10      30.06F
KEOKUK *       PTCLDY    75  70  83 E10       30.05S
OSKALOOSA *    HVY RAIN  76  73  87 SE8       30.04R
OTTUMWA        MOCLDY    75  72  90 SE12      30.03R
WASHINGTON *   MOCLDY    72  66  83 SE8       30.04S
$$

ABBREVIATIONS USED IN REMARKS
   TC - TEMPERATURES IN CELSIUS
  WCI - WIND CHILL INDEX
   HX - HEAT INDEX
  VSB - VISIBILITY
$$




USA.gov is the U.S. government's official web portal to all federal, state and local government web resources and services.